[[{"header":{"parameterUnit":"m.s-1","parameterCategory":1,"la1":30.2991,"la2":30.254,"lo1":-89.0895,"lo2":-89.0444,"dy":0.0017,"dx":0.0017,"nx":28,"ny":28,"refTime":"2023-08-23T09:00:00:Z","depth":0,"parameterNumber":2,"parameterNumberName":"U-component_of_WINDS"},"data":[0,0,0,0,0,0,0,0,0,0,0,0,0,0,0,0,0,0,0,0,0,0,0,0,0,0,0,0,0,0,0,0,0,0,0,0,0,0,0,0,0,0,0,0,0,0,0,0,0,0,0,0,0,0,0,0,0,0,1.2314,1.2312,0,1.2191,1.219,1.2188,1.2071,1.207,1.2068,1.2067,1.1938,1.1936,1.1934,0,0,0,0,0,0,0,0,0,0,0,0,0,1.2445,1.2444,1.2314,1.2312,1.2311,1.2191,1.2189,1.2188,1.2071,1.2069,1.2068,1.2066,1.1939,1.1936,1.1934,0,0,0,0,0,0,0,0,0,0,0,0,0,1.2362,1.2443,1.2314,1.2238,1.223,1.2192,1.2189,1.2187,1.2072,1.2069,1.2067,1.2065,1.194,1.1937,1.1934,1.1959,0,0,1.1924,1.1923,0,0,0,0,0,0,0,0,1.2367,1.2357,1.2251,1.2243,1.2234,1.2144,1.2189,1.2111,1.2072,1.2132,1.2067,1.2064,1.2008,1.1999,1.1981,1.1953,1.1947,1.1924,1.1922,1.1921,1.192,0,0,0,0,0,0,0,1.2373,1.2362,1.2265,1.225,1.2239,1.221,1.2195,1.2173,1.2084,1.2126,1.2118,1.2105,1.2003,1.1984,1.1977,1.1946,1.1924,1.1921,1.1919,1.1918,1.1933,1.1935,0,0,0,0,0,0,1.239,1.2367,1.2269,1.2261,1.2297,1.2209,1.2193,1.2175,1.2084,1.2068,1.2107,1.21,1.1991,1.1981,1.1972,1.1997,1.1921,1.1918,1.1916,1.1931,1.1934,1.1936,0,0,0,0,0,0,1.2394,1.2383,1.2274,1.2312,1.2296,1.2209,1.219,1.2174,1.2155,1.2069,1.2052,1.2104,1.1989,1.1977,1.1964,1.1991,1.1917,1.1914,1.1928,1.1932,1.1935,1.2046,0,0,0,0,0,0,1.2398,1.2385,1.2394,1.2313,1.2294,1.2268,1.2192,1.2173,1.215,1.214,1.2062,1.2047,1.1986,1.1969,1.1961,1.1985,1.1911,1.1925,1.193,1.1934,1.204,1.2053,1.2064,0,0,0,0,0,1.2403,1.2429,1.2395,1.2384,1.2304,1.227,1.2259,1.2189,1.2153,1.2161,1.2106,1.2049,1.1989,1.1969,1.1958,1.1982,1.1923,1.1929,1.1933,1.2034,1.205,1.2064,0,0,0,0,0,0,1.2514,1.2417,1.2378,1.2379,1.2334,1.225,1.2259,1.2208,1.2172,1.2163,1.2077,1.2061,1.2058,1.2018,1.1997,1.2003,1.1948,1.1952,1.2029,1.2043,1.2055,1.2065,1.1909,0,0,0,0,0,1.2539,1.252,1.2436,1.2445,1.2424,1.2346,1.2328,1.2279,1.2228,1.2208,1.2152,1.2104,1.2074,1.2056,1.2024,1.2033,1.2015,1.2045,1.2057,1.2068,1.2072,1.2075,1.2087,1.1952,1.1952,1.1952,0,0,1.259,1.2534,1.2527,1.2466,1.2425,1.2407,1.2331,1.2314,1.23,1.2205,1.219,1.2147,1.2088,1.2087,1.2084,1.2054,1.2105,1.2074,1.2083,1.2081,1.2081,1.2094,1.2105,1.1956,1.1955,1.1955,0,0,1.2673,1.2629,1.2632,1.2594,1.2533,1.2481,1.2482,1.2406,1.2375,1.2358,1.2287,1.2268,1.2219,1.218,1.2154,1.2224,1.2171,1.2216,1.228,1.2284,1.2295,1.2304,1.233,1.234,1.222,1.222,1.2221,0,1.2743,1.2714,1.264,1.2629,1.2604,1.2519,1.2521,1.2487,1.2419,1.2403,1.2372,1.2309,1.2262,1.2252,1.2269,1.225,1.2249,1.2225,1.23,1.2308,1.2315,1.2339,1.2349,1.2226,1.2226,1.2225,1.2225,0,1.2804,1.2785,1.2795,1.2733,1.2709,1.2705,1.263,1.2615,1.2568,1.2519,1.2504,1.2446,1.2401,1.2394,1.2347,1.2377,1.2361,1.2316,1.226,1.2335,1.2356,1.2365,1.2235,1.2233,1.2231,1.223,0,0,1.2954,1.2852,1.2857,1.2828,1.2756,1.274,1.2732,1.2689,1.2678,1.2634,1.2626,1.2586,1.2544,1.2515,1.2462,1.2466,1.2527,1.242,1.2417,1.2443,1.2557,1.2593,1.2605,1.2491,1.2492,1.2493,1.2563,0,1.3025,1.3007,1.2941,1.2943,1.2925,1.2843,1.2836,1.2791,1.2746,1.2723,1.2672,1.2646,1.2592,1.2574,1.2574,1.252,1.2549,1.2514,1.2482,1.2482,1.2501,1.2615,1.2652,1.272,1.257,1.2572,1.2573,0,1.3107,1.307,1.3071,1.3,1.299,1.2985,1.2942,1.2921,1.2868,1.2835,1.2803,1.2745,1.2732,1.268,1.2661,1.2639,1.2621,1.2593,1.2594,1.2589,1.2533,1.2614,1.274,1.2751,1.2585,1.2584,1.2583,0,1.3217,1.3168,1.3162,1.314,1.3057,1.3056,1.3021,1.2966,1.2945,1.2907,1.2892,1.2852,1.2831,1.2801,1.2734,1.2702,1.2723,1.2665,1.2695,1.2697,1.2703,1.2704,1.283,1.2691,1.2691,1.2691,1.2691,0,1.3305,1.3309,1.3211,1.3207,1.3209,1.3133,1.3136,1.3094,1.3046,1.3032,1.2959,1.2948,1.2859,1.2838,1.2785,1.2778,1.2768,1.2741,1.2727,1.2748,1.2752,1.2736,1.273,1.2694,1.2693,1.2693,1.2692,0,1.3429,1.3363,1.3352,1.3275,1.3256,1.3261,1.3195,1.3188,1.3138,1.3123,1.3114,1.3036,1.3007,1.2938,1.289,1.2854,1.2861,1.2835,1.288,1.2871,1.2906,1.2904,1.3027,1.3039,1.2893,1.2894,1.2896,0,1.3489,1.3491,1.3415,1.3401,1.337,1.3349,1.3328,1.3252,1.3233,1.3174,1.3175,1.314,1.3109,1.3067,1.3005,1.2969,1.2942,1.2987,1.2935,1.2957,1.2943,1.2945,1.2945,1.2999,1.3001,1.3002,1.3004,0,1.3605,1.3573,1.3545,1.3508,1.3485,1.3451,1.3413,1.3406,1.3321,1.3303,1.3273,1.3249,1.3202,1.3169,1.3123,1.3086,1.3031,1.302,1.3026,1.3048,1.3074,1.3061,1.2912,1.3018,1.3017,1.3015,1.3015,1.3014,1.3699,1.3697,1.3644,1.3616,1.358,1.3547,1.3538,1.3487,1.3462,1.3418,1.3375,1.335,1.3297,1.3231,1.3198,1.3177,1.3149,1.3156,1.3158,1.3161,1.3171,1.3077,1.3168,1.3168,1.3167,1.3167,1.3166,0,1.3811,1.3774,1.3749,1.3699,1.3678,1.3629,1.3585,1.357,1.355,1.3506,1.3477,1.3444,1.3412,1.3348,1.3311,1.3306,1.328,1.3299,1.3299,1.3292,1.3198,1.3198,1.3321,1.3321,1.3321,1.3321,1.3321,1.3321,1.3867,1.3862,1.3824,1.38,1.3761,1.3738,1.3717,1.3685,1.365,1.3617,1.3591,1.355,1.3498,1.3456,1.3425,1.3407,1.3397,1.3424,1.3399,1.3313,1.3298,1.3284,1.3284,1.3423,1.3423,1.3494,1.3495,1.3495]},{"header":{"parameterUnit":"m.s-1","parameterCategory":1,"la1":30.2991,"la2":30.254,"lo1":-89.0895,"lo2":-89.0444,"dy":0.0017,"dx":0.0017,"nx":28,"ny":28,"refTime":"2023-08-23T09:00:00:Z","depth":0,"parameterNumber":3,"parameterNumberName":"V-component_of_WINDS"},"data":[0,0,0,0,0,0,0,0,0,0,0,0,0,0,0,0,0,0,0,0,0,0,0,0,0,0,0,0,0,0,0,0,0,0,0,0,0,0,0,0,0,0,0,0,0,0,0,0,0,0,0,0,0,0,0,0,0,0,-4.101,-4.1011,0,-4.1097,-4.1098,-4.1099,-4.1061,-4.1058,-4.1056,-4.1054,-4.1138,-4.1142,-4.1146,0,0,0,0,0,0,0,0,0,0,0,0,0,-4.0806,-4.081,-4.101,-4.1011,-4.1012,-4.1097,-4.1098,-4.1099,-4.1061,-4.1058,-4.1056,-4.1053,-4.1137,-4.1142,-4.1147,0,0,0,0,0,0,0,0,0,0,0,0,0,-4.0894,-4.0812,-4.101,-4.1003,-4.1004,-4.1096,-4.1098,-4.1099,-4.1061,-4.1058,-4.1055,-4.1052,-4.1135,-4.1141,-4.1147,-4.125,0,0,-4.1167,-4.1169,0,0,0,0,0,0,0,0,-4.0889,-4.0902,-4.1003,-4.1004,-4.1004,-4.1065,-4.1057,-4.115,-4.1062,-4.1039,-4.1054,-4.1051,-4.1116,-4.1124,-4.1147,-4.1254,-4.1257,-4.1167,-4.1171,-4.1174,-4.1176,0,0,0,0,0,0,0,-4.0883,-4.0898,-4.1044,-4.1005,-4.1005,-4.0995,-4.1004,-4.1074,-4.1094,-4.1041,-4.1039,-4.105,-4.1116,-4.1141,-4.1148,-4.1259,-4.1167,-4.1173,-4.1177,-4.1179,-4.1455,-4.1458,0,0,0,0,0,0,-4.0878,-4.0893,-4.1041,-4.1047,-4.0938,-4.1001,-4.1011,-4.1048,-4.1093,-4.1097,-4.1052,-4.1048,-4.1131,-4.1141,-4.1151,-4.1275,-4.1174,-4.118,-4.1183,-4.1451,-4.1455,-4.1459,0,0,0,0,0,0,-4.0874,-4.0891,-4.1038,-4.0969,-4.0987,-4.1008,-4.105,-4.1052,-4.1077,-4.1102,-4.1105,-4.1075,-4.1129,-4.1142,-4.1226,-4.1277,-4.1182,-4.1188,-4.1447,-4.1452,-4.1457,-4.1522,0,0,0,0,0,0,-4.0868,-4.089,-4.093,-4.097,-4.0991,-4.1113,-4.1053,-4.1056,-4.1089,-4.1083,-4.1124,-4.1127,-4.1128,-4.1217,-4.1232,-4.1284,-4.1193,-4.1442,-4.1449,-4.1456,-4.1516,-4.1529,-4.1541,0,0,0,0,0,-4.0861,-4.0944,-4.0932,-4.095,-4.1042,-4.1116,-4.1127,-4.1128,-4.1093,-4.1133,-4.1149,-4.1126,-4.1269,-4.1226,-4.1243,-4.1297,-4.1439,-4.1447,-4.1455,-4.151,-4.1526,-4.154,0,0,0,0,0,0,-4.0906,-4.0949,-4.0937,-4.1035,-4.1073,-4.1109,-4.1159,-4.1145,-4.1192,-4.1184,-4.1182,-4.1191,-4.1278,-4.1296,-4.1247,-4.1399,-4.1348,-4.136,-4.1384,-4.14,-4.1412,-4.1406,-4.1198,0,0,0,0,0,-4.0929,-4.0987,-4.102,-4.1103,-4.1123,-4.1138,-4.117,-4.1168,-4.1206,-4.1221,-4.1243,-4.1279,-4.1332,-4.1367,-4.1417,-4.1518,-4.1526,-4.1564,-4.1576,-4.1586,-4.1596,-4.1652,-4.1669,-4.1485,-4.1485,-4.1485,0,0,-4.0973,-4.1004,-4.104,-4.1114,-4.1142,-4.1201,-4.1152,-4.1216,-4.126,-4.123,-4.1311,-4.1329,-4.1369,-4.1462,-4.1504,-4.1479,-4.1649,-4.1596,-4.1604,-4.1609,-4.1662,-4.1679,-4.1694,-4.1491,-4.149,-4.1489,0,0,-4.1086,-4.1115,-4.1189,-4.1219,-4.1264,-4.1274,-4.1291,-4.1331,-4.1342,-4.1424,-4.1403,-4.1454,-4.1546,-4.1576,-4.1603,-4.1728,-4.1709,-4.1745,-4.181,-4.1864,-4.1878,-4.1891,-4.1936,-4.1952,-4.1755,-4.1755,-4.1755,0,-4.1136,-4.1227,-4.1228,-4.1295,-4.1328,-4.1306,-4.138,-4.1408,-4.1466,-4.1489,-4.1461,-4.1576,-4.1601,-4.1702,-4.1733,-4.1755,-4.1775,-4.174,-4.1876,-4.1889,-4.1901,-4.1944,-4.1961,-4.1759,-4.1758,-4.1758,-4.1758,0,-4.1286,-4.1349,-4.1403,-4.1462,-4.1501,-4.1571,-4.1581,-4.162,-4.1615,-4.1627,-4.1711,-4.1741,-4.1797,-4.1821,-4.1815,-4.192,-4.1904,-4.1876,-4.1826,-4.1923,-4.1963,-4.198,-4.1765,-4.1763,-4.1762,-4.1761,0,0,-4.1429,-4.149,-4.151,-4.1537,-4.1585,-4.1633,-4.1702,-4.1759,-4.1792,-4.1833,-4.1891,-4.1969,-4.1945,-4.1976,-4.1973,-4.202,-4.2119,-4.1987,-4.1988,-4.2011,-4.2237,-4.2258,-4.2277,-4.2106,-4.211,-4.2112,-4.2234,0,-4.1546,-4.1669,-4.1673,-4.1785,-4.1843,-4.1823,-4.1883,-4.1919,-4.1933,-4.1983,-4.1997,-4.2053,-4.2016,-4.2035,-4.2081,-4.2097,-4.2164,-4.2088,-4.2159,-4.2161,-4.215,-4.2298,-4.232,-4.2434,-4.225,-4.2253,-4.2254,0,-4.1698,-4.1747,-4.1865,-4.1907,-4.1931,-4.1985,-4.2039,-4.2087,-4.2127,-4.2134,-4.2169,-4.216,-4.2229,-4.2177,-4.2272,-4.222,-4.2249,-4.2262,-4.2266,-4.2273,-4.2214,-4.2309,-4.247,-4.2487,-4.2279,-4.2277,-4.2275,0,-4.1792,-4.1886,-4.197,-4.1993,-4.2043,-4.2082,-4.2104,-4.2141,-4.2176,-4.2222,-4.2244,-4.2297,-4.2326,-4.2366,-4.2371,-4.2332,-4.2467,-4.2415,-4.2474,-4.2474,-4.2503,-4.2501,-4.2671,-4.2522,-4.2521,-4.2521,-4.2521,0,-4.1922,-4.1995,-4.2013,-4.2064,-4.2145,-4.2149,-4.2229,-4.2247,-4.2281,-4.2335,-4.232,-4.237,-4.2374,-4.2426,-4.243,-4.2508,-4.2521,-4.2528,-4.2528,-4.2529,-4.2529,-4.2548,-4.2541,-4.2525,-4.2524,-4.2524,-4.2523,0,-4.2039,-4.2054,-4.2144,-4.2185,-4.2197,-4.2255,-4.229,-4.2338,-4.2351,-4.242,-4.2436,-4.2455,-4.2515,-4.2525,-4.2594,-4.2597,-4.2692,-4.2683,-4.2679,-4.2678,-4.2737,-4.2731,-4.2926,-4.2952,-4.2785,-4.2786,-4.2787,0,-4.2122,-4.2178,-4.2226,-4.2262,-4.2287,-4.2345,-4.2381,-4.2386,-4.2424,-4.2475,-4.2517,-4.2576,-4.2624,-4.2721,-4.274,-4.2793,-4.2787,-4.2851,-4.2794,-4.2794,-4.2788,-4.2785,-4.2791,-4.2862,-4.2864,-4.2865,-4.2866,0,-4.2266,-4.2271,-4.2325,-4.2381,-4.2425,-4.2469,-4.2511,-4.2541,-4.2551,-4.2594,-4.2657,-4.2694,-4.2767,-4.2826,-4.2879,-4.29,-4.2885,-4.2884,-4.2901,-4.2903,-4.2898,-4.2902,-4.2709,-4.288,-4.2878,-4.2877,-4.2877,-4.2876,-4.2369,-4.2419,-4.2461,-4.2521,-4.2554,-4.2593,-4.2642,-4.2661,-4.2714,-4.2776,-4.2775,-4.2844,-4.2882,-4.2953,-4.2978,-4.3031,-4.301,-4.3033,-4.304,-4.3046,-4.3052,-4.289,-4.304,-4.304,-4.3039,-4.3039,-4.3039,0,-4.2513,-4.254,-4.2595,-4.2656,-4.2703,-4.2687,-4.2732,-4.2773,-4.2834,-4.2872,-4.292,-4.2993,-4.305,-4.3075,-4.3131,-4.3168,-4.3163,-4.3183,-4.318,-4.3186,-4.3067,-4.3047,-4.3187,-4.3187,-4.3187,-4.3187,-4.3186,-4.3186,-4.2594,-4.2678,-4.2688,-4.2787,-4.2813,-4.2882,-4.2909,-4.2946,-4.2977,-4.3059,-4.3107,-4.3124,-4.3157,-4.3215,-4.3267,-4.3273,-4.3294,-4.3317,-4.332,-4.3209,-4.3194,-4.3179,-4.3161,-4.3322,-4.3322,-4.3434,-4.3435,-4.3436]}]]